Regional Weather Roundup
Issued by NWS

Home | Current Version | Previous Version | Graphics & Text | Print | Product List | Glossary On
Versions: 1 2 3 4 5 6 7 8 9 10 11 12 13 14 15 16 17 18 19 20 21 22 23 24 25 26 27 28 29 30 31 32 33 34 35 36 37 38 39 40 41 42 43 44 45 46 47 48 49 50
784
ASUS45 KSLC 212310
RWRUT

UTAH REGIONAL WEATHER ROUNDUP
NATIONAL WEATHER SERVICE SALT LAKE CITY UT
500 PM MDT SAT APR 21 2018

UTZ001>011-023>025-220000-

NORTHERN UTAH

CITY           SKY/WX    TMP DP  RH WIND       PRES   REMARKS
BRIGHAM CITY   SUNNY     67  22  17 S6        30.15S
HILL AFB       SUNNY     64  22  20 SW6       30.16F
LOGAN          SUNNY     72  33  24 VRB6      30.12F
OGDEN          SUNNY     66  22  18 SW7       30.15F
SALT LAKE CITY MOSUNNY   69  22  16 NW9       30.15F
TOOELE VALLEY  SUNNY     66  32  28 N7        30.16F
WENDOVER       SUNNY     72  23  16 SE10      30.13F
HEBER CITY       N/A     68  25  19 W9        30.13F
WEST JORDAN    SUNNY     65  28  24 NW14G22   30.17S

$$

UTZ011>015-024>027-220000-

CENTRAL/NORTHEAST UTAH

CITY           SKY/WX    TMP DP  RH WIND       PRES   REMARKS
PROVO AIRPORT  SUNNY     66  33  29 W8        30.15F
MOAB/CANYONLAN MOSUNNY   67  32  27 SW10      30.07F
DELTA          SUNNY     64  25  22 W6        30.17S
PRICE          SUNNY     69  24  18 NW14G21   30.11S
RICHFIELD      SUNNY     66  32  28 SE1       30.15F
ROOSEVELT      SUNNY     64  34  32 CALM      30.12F
VERNAL         SUNNY     63  36  36 VRB3      30.10F

$$

UTZ013>016-019>022-027-220000-

SOUTHERN UTAH

CITY           SKY/WX    TMP DP  RH WIND       PRES   REMARKS
BRYCE CANYON   SUNNY     62  24  23 W14       30.22F
CEDAR CITY     SUNNY     67  17  14 N8G20     30.17F
MILFORD        SUNNY     66  28  24 VRB5      30.17F
ST GEORGE      CLEAR     81  23  11 VRB6      30.02F
HANKSVILLE     SUNNY     72  28  20 N3        30.08F
KANAB          SUNNY     73  21  14 S14G20    30.13S
BLANDING         N/A     65  28  24 NE6       30.19S

$$

REGIONAL REPORTS     COLORADO/ARIZONA

CITY           SKY/WX    TMP DP  RH WIND       PRES   REMARKS
CRAIG, CO      MOSUNNY   55  36  48 E5        30.16F
GRAND JUNCTION MOSUNNY   63  34  33 SE12      30.13F
RIFLE, CO      MOSUNNY   53  36  52 NE5       30.19S
MONTROSE, CO   PTSUNNY   55  32  41 CALM      30.20F
CORTEZ, CO     SUNNY     63  29  27 N17G28    30.12S
COLORADO CITY    N/A     73  23  15 NW9G16    30.14F
PAGE, AZ       SUNNY     74  24  15 VRB3      30.07F
GRAND CANYON   SUNNY     66  19  16 NE7       30.20S
KINGMAN, AZ    SUNNY     81  23  11 CALM      30.05F
FLAGSTAFF, AZ  SUNNY     66  21  18 NE12G21   30.19F

$$

REGIONAL REPORTS    NEVADA/IDAHO/WYOMING

CITY           SKY/WX    TMP DP  RH WIND       PRES   REMARKS
LAS VEGAS, NV  MOSUNNY   84  26  12 CALM      30.01F
ELY, NY        SUNNY     68  18  14 NE12G23   30.18F
ELKO, NV       SUNNY     69  32  25 SW9       30.15F
POCATELLO, ID  MOSUNNY   71  32  23 W22       30.10F
BURLEY, ID     SUNNY     68  31  25 W20G29    30.11F
FORT BRIDGER,    N/A     64  13  14 NW21G29   30.20S
EVANSTON, WY   SUNNY     61  18  18 W14G24    30.20R
ROCK SPRINGS,  SUNNY     65  14  14 NW14G30   30.09F
KEMMERER, WY   SUNNY     59  21  23 W17G26    30.18S

$$




USA.gov is the U.S. government's official web portal to all federal, state and local government web resources and services.